Simultaneous Nadir Overpasses (SNOs) Predictions

Prediction of SNOs between LANDSAT-8 and NPP Satellite Orbit:

Table of predicted SNOs for the next 14.0 days since TLE Epoch: 11/14/2014
Index Date (LANDSAT-8) Time (LANDSAT-8) Lat,Lon (LANDSAT-8) SZA (LANDSAT-8 ) Date (NPP) Time (NPP) Lat,Lon (NPP) SZA (NPP ) Distance(km) Time Diff (sec)
1 11/16/2014 17:28:44 70.89, -84.60 89.63 11/16/2014 17:28:10 70.90, -84.69 89.63 3.03 34
2 11/16/2014 18:18:14 -70.78, 82.85 90.48 11/16/2014 18:18:52 -70.80, 82.79 90.46 3.29 38
3 11/19/2014 08:55:38 -71.32,-135.69 89.31 11/19/2014 08:54:27 -71.37,-137.04 89.27 48.50 71
4 11/19/2014 09:45:12 70.84, 31.20 90.22 11/19/2014 09:45:03 70.85, 31.15 90.23 2.10 9
5 11/19/2014 10:34:42 -70.73,-161.34 89.89 11/19/2014 10:35:45 -70.75,-161.37 89.87 3.06 63
6 11/22/2014 01:12:12 -70.91, -20.45 89.13 11/22/2014 01:11:12 -70.91, -20.50 89.12 1.74 60
7 11/22/2014 02:01:39 70.80, 147.03 90.78 11/22/2014 02:01:56 70.81, 146.98 90.79 2.10 17
8 11/22/2014 02:51:19 -70.14, -46.31 89.88 11/22/2014 02:52:27 -70.13, -44.64 89.88 63.34 68
9 11/24/2014 17:28:37 -70.89, 95.41 88.59 11/24/2014 17:28:04 -70.87, 95.32 88.61 3.33 33
10 11/24/2014 18:18:05 70.72, -97.20 91.25 11/24/2014 18:18:47 70.72, -97.12 91.26 2.99 42
11 11/27/2014 08:55:31 71.04, 43.91 92.07 11/27/2014 08:54:18 71.10, 43.38 92.13 20.18 73
12 11/27/2014 09:45:03 -70.83,-148.79 88.14 11/27/2014 09:44:57 -70.84,-148.86 88.13 3.18 6
13 11/27/2014 10:34:30 70.71, 18.68
